Weather History for Durango, CO

Change the Weather History Date:

Friday, June 14, 2013

  Actual Average Record
Temperature  
Mean Temperature 70 °F 62 °F  
Max Temperature 87 °F 81 °F 91 °F (1974)
Min Temperature 53 °F 42 °F 28 °F (2001)
Degree Days  
Heating Degree Days 0 4  
Month to date heating degree days 25 80  
Since 1 June heating degree days 25 80  
Since 1 July heating degree days 7131 7088  
Cooling Degree Days 5 1  
Month to date cooling degree days 21 7  
Year to date cooling degree days 21 8  
Since 1 June cooling degree days 21 7  
Growing Degree Days 20 (Base 50)    
Moisture  
Dew Point 31 °F    
Average Humidity 34    
Maximum Humidity 59    
Minimum Humidity 9    
Precipitation  
Precipitation 0.00 in 0.02 in 0.54 in (1973)
Month to date precipitation T 0.18  
Year to date precipitation 3.75 5.61  
Sea Level Pressure  
Sea Level Pressure 29.84 in    
Wind  
Wind Speed 7 mph (NW)    
Max Wind Speed 26 mph    
Max Gust Speed 33 mph    
Visibility 10 miles    
Events      
T = Trace of Precipitation, MM = Missing Value Source: NWS Daily Summary

Daily Weather History Graph

Daily Weather History Graph

Search for Another Location

Airport:

Trip Planner

Search our weather history database for the weather conditions in past years. The results will help you decide how hot, cold, wet, or windy it might be!

Date:

Astronomy

Jun. 14, 2013 Rise Set
Actual Time 5:50 AM MDT 8:32 PM MDT
Civil Twilight 5:19 AM MDT 9:03 PM MDT
Nautical Twilight 4:41 AM MDT 9:41 PM MDT
Astronomical Twilight 3:57 AM MDT 10:25 PM MDT
Moon 11:21 AM MDT (6/14) No Moon Set
Length of Visible Light 15h 43m
Length of Day
14h 42m
Waxing Crescent, 31% of the Moon is Illuminated
Jun 14
Waxing Crescent
Jun 16
First Quarter
Jun 23
Full
Jun 29
Last Quarter
Jul 8
New

Hourly Weather History & Observations

Time (MDT) Temp. Dew Point Humidity Pressure Visibility Wind Dir Wind Speed Gust Speed Precip Events Conditions
12:53 AM 68.0 °F 36.0 °F 31% 29.85 in 10.0 mi SSE 3.5 mph - N/A   Mostly Cloudy
1:53 AM 66.9 °F 37.0 °F 33% 29.86 in 10.0 mi ENE 9.2 mph - N/A   Partly Cloudy
2:53 AM 62.1 °F 37.0 °F 39% 29.86 in 10.0 mi NE 5.8 mph - N/A   Clear
3:53 AM 61.0 °F 39.0 °F 44% 29.88 in 10.0 mi North 9.2 mph - N/A   Clear
4:53 AM 57.0 °F 37.9 °F 49% 29.88 in 10.0 mi Calm Calm - N/A   Partly Cloudy
5:53 AM 54.0 °F 39.0 °F 57% 29.89 in 10.0 mi Calm Calm - N/A   Clear
6:53 AM 55.9 °F 39.0 °F 53% 29.91 in 10.0 mi Calm Calm - N/A   Clear
7:53 AM 63.0 °F 39.0 °F 41% 29.90 in 10.0 mi Calm Calm - N/A   Clear
8:53 AM 71.1 °F 39.9 °F 32% 29.93 in 10.0 mi Variable 4.6 mph - N/A   Clear
9:53 AM 75.9 °F 39.9 °F 27% 29.88 in 10.0 mi Variable 5.8 mph - N/A   Clear
10:53 AM 78.1 °F 36.0 °F 22% 29.86 in 10.0 mi SW 6.9 mph - N/A   Clear
11:53 AM 81.0 °F 32.0 °F 17% 29.84 in 10.0 mi Variable 4.6 mph - N/A   Clear
12:53 PM 84.9 °F 30.9 °F 14% 29.82 in 10.0 mi WSW 10.4 mph 25.3 mph N/A   Clear
1:53 PM 82.9 °F 28.0 °F 14% 29.81 in 10.0 mi WNW 10.4 mph 16.1 mph N/A   Clear
2:53 PM 87.1 °F 21.9 °F 9% 29.79 in 10.0 mi WNW 12.7 mph 32.2 mph N/A   Clear
3:53 PM 84.0 °F 21.9 °F 10% 29.80 in 10.0 mi West 18.4 mph 25.3 mph N/A   Clear
4:53 PM 84.9 °F 23.0 °F 10% 29.79 in 10.0 mi WNW 17.3 mph 31.1 mph N/A   Clear
5:53 PM 84.0 °F 23.0 °F 11% 29.78 in 10.0 mi WNW 15.0 mph 20.7 mph N/A   Clear
6:53 PM 82.0 °F 21.9 °F 11% 29.78 in 10.0 mi WNW 16.1 mph 24.2 mph N/A   Clear
7:53 PM 78.1 °F 23.0 °F 13% 29.77 in 7.0 mi NW 9.2 mph - N/A   Clear
8:53 PM 75.0 °F 21.0 °F 13% 29.77 in 10.0 mi NW 8.1 mph - N/A   Clear
9:53 PM 69.1 °F 21.9 °F 17% 29.79 in 10.0 mi Calm Calm - N/A   Clear
10:53 PM 63.0 °F 21.9 °F 21% 29.82 in 10.0 mi NNE 6.9 mph - N/A   Clear
11:53 PM 55.0 °F 27.0 °F 34% 29.85 in 10.0 mi North 6.9 mph - N/A   Clear